Regional Weather Roundup
Issued by NWS

Home | Current Version | Previous Version | Graphics & Text | Print | Product List | Glossary On
Versions: 1 2 3 4 5 6 7 8 9 10 11 12 13 14 15 16 17 18 19 20 21 22 23 24 25 26 27 28
000
ASUS45 KSLC 301110
RWRUT

UTAH REGIONAL WEATHER ROUNDUP
NATIONAL WEATHER SERVICE SALT LAKE CITY UT
500 AM MDT FRI SEP 30 2016

UTZ001>011-023>025-301200-

NORTHERN UTAH

CITY           SKY/WX    TMP DP  RH WIND       PRES   REMARKS
BRIGHAM CITY     N/A     53  49  86 CALM      30.19R
HILL AFB       PTCLDY    59  47  65 SE10      30.20S
LOGAN          PTCLDY    47  47 100 W5        30.20S FOG
OGDEN          PTCLDY    58  48  69 S9        30.18S
PROVO AIRPORT  PTCLDY    58  48  69 SE9       30.23S
SALT LAKE CITY MOCLDY    64  51  62 SE12      30.17S
VERNAL         PTCLDY    49  48  97 CALM      30.31S
WENDOVER       PTCLDY    57  46  67 W6        30.16S
HEBER CITY     PTCLDY    45  39  81 CALM      30.27S
WEST JORDAN    CLEAR     62  49  63 S13G20    30.21R

$$

UTZ012>022-026-027-301200-

SOUTHERN/CENTRAL UTAH

CITY           SKY/WX    TMP DP  RH WIND       PRES   REMARKS
BLANDING       CLOUDY    55  51  85 CALM      30.43S
BRYCE CANYON   MOCLDY    45  43  93 CALM      30.42S
CEDAR CITY     CLEAR     49  44  83 CALM      30.29S
DELTA          MOCLDY    59  45  58 S8        30.23S
MILFORD        CLOUDY    54  47  77 SW6       30.25R
MOAB/CYNLANDS  CLOUDY    58  55  90 NW7       30.28S
PRICE          CLOUDY    55  51  86 E3        30.34S
ST GEORGE      MOSUNNY   66  52  59 NE5       30.21S

$$

REGIONAL REPORTS     COLORADO/ARIZONA

CITY           SKY/WX    TMP DP  RH WIND       PRES   REMARKS
CRAIG, CO      CLOUDY    53  50  89 CALM      30.35S
GRAND JUNCTION CLOUDY    57  55  93 CALM      30.31R
RIFLE          CLOUDY    56  55  97 CALM      30.34S
MONTROSE       CLOUDY    55  51  86 CALM      30.37R
CORTEZ         CLOUDY    49  47  93 CALM      30.36R
PAGE, AZ       CLOUDY    61  56  83 CALM      30.26F
GRAND CANYON   PTCLDY    46  44  93 CALM      30.37R
KINGMAN        CLEAR     67  51  56 SE9       30.17S
FLAGSTAFF      PTCLDY    47  46  97 CALM      30.38F

$$

REGIONAL REPORTS    NEVADA/IDAHO/WYOMING

CITY           SKY/WX    TMP DP  RH WIND       PRES   REMARKS
LAS VEGAS, NV  MOCLDY    76  46  34 W3        30.08R
ELY            PTCLDY    48  40  73 S9        30.30R
ELKO           PTCLDY    51  44  77 E5        30.20R
POCATELLO, ID  CLEAR     48  45  89 NW3       30.17S
BURLEY         PTCLDY    52  48  86 NE3       30.12R
EVANSTON, WY   PTCLDY    49  40  71 S5        30.33S
ROCK SPRINGS   CLOUDY    52  45  77 SE6       30.32R

$$




USA.gov is the U.S. government's official web portal to all federal, state and local government web resources and services.